Location: Emblem
(62.4273°N, 6.4710°E)
Time: 06:14:16
(UTC+02:00)

Transit 2A - Pass Details

Date: 06 March 2024
Orbit: 596 x 956 km, 66.7° (Epoch: 24 April)

Event Time Altitude Azimuth Distance (km) Brightness Sun altitude
Rises 00:10:01 0° 298° (WNW) 2,913 9.5 -32.8°
Reaches altitude 10° 00:12:13 10° 300° (WNW) 2,037 8.6 -32.8°
Enters shadow 00:13:34 20° 303° (WNW) 1,524 7.9 -32.8°
